FW0970 Weather Reports


Display with metric or nautical units.
time (UTC)temp
F
wind
direction
speed
MPH
gust
MPH
rain 1hr
in
rain 24hr
in
rain mn
in
humidity
%
barometer
mb
20260507131510 68 360 0.0 2.0 0.00 0.00 0.00 37 1011.8
20260507130003 67 360 0.0 3.0 0.00 0.00 0.00 38 1011.7
20260507124602 67 360 2.0 4.0 0.00 0.00 0.00 36 1011.6
20260507123100 67 360 2.0 4.0 0.00 0.00 0.00 36 1011.7
20260507121607 66 360 2.0 3.0 0.00 0.00 0.00 39 1011.6
20260507114611 67 360 0.0 1.0 0.00 0.00 0.00 38 1011.4
20260507113053 68 360 0.0 3.0 0.00 0.00 0.00 35 1011.5
20260507111551 68 360 0.0 3.0 0.00 0.00 0.00 34 1011.5
20260507110053 68 360 0.0 3.0 0.00 0.00 0.00 34 1011.5
20260507104547 69 360 0.0 4.0 0.00 0.00 0.00 35 1011.8
20260507103047 69 360 0.0 3.0 0.00 0.00 0.00 33 1011.9
20260507101546 69 360 0.0 3.0 0.00 0.00 0.00 32 1011.9
20260507100043 69 360 1.0 4.0 0.00 0.00 0.00 33 1012.0
20260507094541 69 360 0.0 1.0 0.00 0.00 0.00 34 1012.2
20260507093048 69 360 1.0 4.0 0.00 0.00 0.00 35 1012.2
20260507091538 70 360 0.0 3.0 0.00 0.00 0.00 35 1012.2
20260507090039 70 360 0.0 4.0 0.00 0.00 0.00 32 1012.2
20260507084536 70 360 1.0 4.0 0.00 0.00 0.00 31 1012.3
20260507083034 72 360 2.0 5.0 0.00 0.00 0.00 29 1012.3
20260507081543 71 360 3.0 6.0 0.00 0.00 0.00 30 1012.4
20260507080029 74 360 0.0 3.0 0.00 0.00 0.00 31 1012.5
20260507074545 73 360 1.0 2.0 0.00 0.00 0.00 32 1012.5
20260507073026 74 360 0.0 0.0 0.00 0.00 0.00 28 1012.4
20260507071525 75 360 0.0 0.0 0.00 0.00 0.00 27 1012.3
20260507070022 76 360 0.0 2.0 0.00 0.00 0.00 25 1012.2
20260507064520 75 360 0.0 2.0 0.00 0.00 0.00 28 1012.3
20260507063024 74 360 0.0 0.0 0.00 0.00 0.00 26 1012.4
20260507061519 76 360 0.0 2.0 0.00 0.00 0.00 25 1012.3
20260507060019 76 360 0.0 0.0 0.00 0.00 0.00 25 1012.4
20260507054520 76 360 0.0 0.0 0.00 0.00 0.00 28 1012.3
20260507053019 77 360 0.0 0.0 0.00 0.00 0.00 25 1012.3
20260507051518 77 360 0.0 0.0 0.00 0.00 0.00 25 1012.3
20260507050025 78 360 1.0 4.0 0.00 0.00 0.00 23 1012.3
20260507044516 78 360 2.0 8.0 0.00 0.00 0.00 23 1012.1
20260507043016 80 360 2.0 5.0 0.00 0.00 0.00 21 1012.0
20260507041515 80 360 2.0 5.0 0.00 0.00 0.00 22 1011.9
20260507040013 79 360 1.0 5.0 0.00 0.00 0.00 22 1011.8
20260507034514 79 360 2.0 4.0 0.00 0.00 0.00 23 1011.6
20260507033019 79 360 2.0 6.0 0.00 0.00 0.00 22 1011.4
20260507031512 79 360 4.0 8.0 0.00 0.00 0.00 23 1011.2
20260507030011 80 360 4.0 6.0 0.00 0.00 0.00 22 1011.0
20260507024511 80 360 3.0 6.0 0.00 0.00 0.00 22 1010.8
20260507023011 80 360 3.0 6.0 0.00 0.00 0.00 22 1010.8
20260507021510 80 360 4.0 9.0 0.00 0.00 0.00 22 1010.6
20260507020010 81 360 4.0 10.0 0.00 0.00 0.00 21 1010.6
20260507014509 82 360 3.0 10.0 0.00 0.00 0.00 20 1010.5
20260507013009 82 360 5.0 9.0 0.00 0.00 0.00 21 1010.4
20260507011509 82 360 4.0 11.0 0.00 0.00 0.00 20 1010.5
20260507010010 82 360 5.0 9.0 0.00 0.00 0.00 20 1010.5
20260507004510 83 360 5.0 10.0 0.00 0.00 0.00 20 1010.5
20260507003006 82 360 8.0 11.0 0.00 0.00 0.00 19 1010.3
20260507001506 83 360 3.0 9.0 0.00 0.00 0.00 20 1010.4
20260507000004 82 360 5.0 10.0 0.00 0.00 0.00 20 1010.4
20260506234503 82 360 8.0 13.0 0.00 0.00 0.00 20 1010.5
20260506233002 82 360 3.0 8.0 0.00 0.00 0.00 20 1010.6
20260506231501 81 360 7.0 12.0 0.00 0.00 0.00 20 1010.7
20260506230059 82 360 5.0 13.0 0.00 0.00 0.00 20 1011.0
20260506224558 81 360 2.0 10.0 0.00 0.00 0.00 21 1011.1
20260506223156 81 41 1.0 8.0 0.00 0.00 0.00 20 1011.3
20260506221553 80 82 2.0 8.0 0.00 0.00 0.00 22 1011.5
20260506220052 80 275 4.0 13.0 0.00 0.00 0.00 21 1011.7
20260506214552 80 308 4.0 10.0 0.00 0.00 0.00 21 1011.9
20260506213102 79 257 3.0 7.0 0.00 0.00 0.00 22 1012.2
20260506211548 81 5 4.0 9.0 0.00 0.00 0.00 22 1012.4
20260506210047 82 40 3.0 9.0 0.00 0.00 0.00 20 1012.7
20260506204550 82 360 2.0 9.0 0.00 0.00 0.00 20 1012.9
20260506203044 82 123 2.0 9.0 0.00 0.00 0.00 21 1013.1
20260506201543 78 355 2.0 10.0 0.00 0.00 0.00 22 1013.1
20260506200041 78 17 7.0 11.0 0.00 0.00 0.00 22 1013.3
20260506194540 79 44 2.0 13.0 0.00 0.00 0.00 22 1013.5
20260506193039 77 325 3.0 9.0 0.00 0.00 0.00 25 1013.7
20260506191538 76 263 5.0 11.0 0.00 0.00 0.00 26 1013.9
20260506190035 78 68 2.0 11.0 0.00 0.00 0.00 25 1014.2
20260506184534 77 51 5.0 11.0 0.00 0.00 0.00 26 1014.2
20260506183032 74 235 2.0 12.0 0.00 0.00 0.00 28 1014.6
20260506181530 75 325 5.0 11.0 0.00 0.00 0.00 28 1014.7
20260506180025 74 348 2.0 5.0 0.00 0.00 0.00 30 1014.8
20260506174522 73 346 6.0 10.0 0.00 0.00 0.00 30 1014.8
20260506173019 73 360 1.0 4.0 0.00 0.00 0.00 31 1014.9
20260506171515 72 36 0.0 3.0 0.00 0.00 0.00 34 1014.9
20260506170012 70 219 0.0 3.0 0.00 0.00 0.00 35 1014.8
20260506164506 70 346 0.0 5.0 0.00 0.00 0.00 35 1014.7
20260506163003 69 29 3.0 5.0 0.00 0.00 0.00 36 1014.8
20260506161614 69 351 2.0 5.0 0.00 0.00 0.00 36 1014.7
20260506160053 68 236 1.0 4.0 0.00 0.00 0.00 38 1014.7
20260506154608 68 360 2.0 4.0 0.00 0.00 0.00 38 1014.7
20260506153057 68 360 0.0 3.0 0.00 0.00 0.00 37 1014.8
20260506151547 67 360 0.0 3.0 0.00 0.00 0.00 39 1014.8
20260506150042 66 162 0.0 3.0 0.00 0.00 0.00 43 1014.8
20260506144539 65 162 2.0 5.0 0.00 0.00 0.00 44 1014.8
20260506143046 66 161 0.0 3.0 0.00 0.00 0.00 41 1014.7
20260506141535 65 172 0.0 4.0 0.00 0.00 0.00 43 1014.4
20260506140029 64 235 0.0 4.0 0.00 0.00 0.00 47 1014.2
20260506134525 63 236 0.0 0.0 0.00 0.00 0.00 43 1013.9
20260506133022 63 236 0.0 0.0 0.00 0.00 0.00 43 1013.9